Time,TemperatureF,DewpointF,PressureIn,WindDirection,WindDirectionDegrees,WindSpeedMPH,WindSpeedGustMPH,Humidity,HourlyPrecipIn,Conditions,Clouds,dailyrainin,SoftwareType,DateUTC
2013-03-28 00:02:00,24.0,17.0,30.35,SE,128,2.0,5.0,74,0.00,,,0.00,,2013-03-28 05:02:00,
2013-03-28 00:12:00,24.0,17.0,30.35,SE,128,2.0,5.0,74,0.00,,,0.00,,2013-03-28 05:12:00,
2013-03-28 00:22:00,24.0,17.0,30.35,SE,140,2.0,6.0,74,0.00,,,0.00,,2013-03-28 05:22:00,
2013-03-28 00:32:00,23.0,16.0,30.34,SE,140,2.0,4.0,74,0.00,,,0.00,,2013-03-28 05:32:00,
2013-03-28 00:42:00,23.0,16.0,30.34,SE,140,2.0,4.0,74,0.00,,,0.00,,2013-03-28 05:42:00,
2013-03-28 00:52:00,23.0,16.0,30.34,SE,126,3.0,4.0,74,0.00,,,0.00,,2013-03-28 05:52:00,
2013-03-28 01:02:00,22.0,15.0,30.34,SE,142,0.0,5.0,75,0.00,,,0.00,,2013-03-28 06:02:00,
2013-03-28 01:12:00,22.0,15.0,30.34,SE,142,0.0,5.0,75,0.00,,,0.00,,2013-03-28 06:12:00,
2013-03-28 01:22:00,22.0,15.0,30.34,SE,142,0.0,5.0,75,0.00,,,0.00,,2013-03-28 06:22:00,
2013-03-28 01:32:00,22.0,16.0,30.34,SE,144,0.0,1.0,76,0.00,,,0.00,,2013-03-28 06:32:00,
2013-03-28 01:42:00,22.0,16.0,30.34,SE,144,0.0,1.0,76,0.00,,,0.00,,2013-03-28 06:42:00,
2013-03-28 01:52:00,22.0,16.0,30.34,SE,144,0.0,1.0,76,0.00,,,0.00,,2013-03-28 06:52:00,
2013-03-28 02:02:00,23.0,17.0,30.34,SSE,152,0.0,4.0,77,0.00,,,0.00,,2013-03-28 07:02:00,
2013-03-28 02:12:00,23.0,17.0,30.34,SSE,152,0.0,4.0,77,0.00,,,0.00,,2013-03-28 07:12:00,
2013-03-28 02:22:00,23.0,17.0,30.34,SSE,152,0.0,4.0,77,0.00,,,0.00,,2013-03-28 07:22:00,
2013-03-28 02:32:00,23.0,17.0,30.33,SSE,152,0.0,1.0,77,0.00,,,0.00,,2013-03-28 07:32:00,
2013-03-28 02:42:00,23.0,17.0,30.33,SSE,152,0.0,1.0,77,0.00,,,0.00,,2013-03-28 07:42:00,
2013-03-28 02:52:00,23.0,17.0,30.33,SSE,152,1.0,3.0,77,0.00,,,0.00,,2013-03-28 07:52:00,
2013-03-28 03:02:00,23.0,17.0,30.32,SSE,152,1.0,3.0,77,0.00,,,0.00,,2013-03-28 08:02:00,
2013-03-28 03:12:00,23.0,17.0,30.32,SSE,152,1.0,3.0,77,0.00,,,0.00,,2013-03-28 08:12:00,
2013-03-28 03:21:00,23.0,17.0,30.32,SSE,147,1.0,4.0,77,0.00,,,0.00,,2013-03-28 08:21:00,
2013-03-28 03:32:00,23.0,17.0,30.32,SE,144,0.0,4.0,77,0.00,,,0.00,,2013-03-28 08:32:00,
2013-03-28 03:42:00,23.0,17.0,30.32,SE,144,0.0,4.0,77,0.00,,,0.00,,2013-03-28 08:42:00,
2013-03-28 03:52:00,23.0,17.0,30.32,SE,144,0.0,3.0,77,0.00,,,0.00,,2013-03-28 08:52:00,
2013-03-28 04:02:00,23.0,17.0,30.31,SE,140,2.0,4.0,77,0.00,,,0.00,,2013-03-28 09:02:00,
2013-03-28 04:12:00,23.0,17.0,30.31,SE,140,2.0,4.0,77,0.00,,,0.00,,2013-03-28 09:12:00,
2013-03-28 04:22:00,23.0,17.0,30.31,SE,139,1.0,4.0,77,0.00,,,0.00,,2013-03-28 09:22:00,
2013-03-28 04:32:00,23.0,17.0,30.31,SE,139,0.0,3.0,77,0.00,,,0.00,,2013-03-28 09:32:00,
2013-03-28 04:42:00,23.0,17.0,30.31,SE,139,0.0,3.0,77,0.00,,,0.00,,2013-03-28 09:42:00,
2013-03-28 04:52:00,23.0,17.0,30.31,SE,139,0.0,1.0,77,0.00,,,0.00,,2013-03-28 09:52:00,
2013-03-28 05:03:00,23.0,17.0,30.30,SE,139,0.0,2.0,77,0.00,,,0.00,,2013-03-28 10:03:00,
2013-03-28 05:12:00,23.0,17.0,30.30,SE,139,0.0,2.0,77,0.00,,,0.00,,2013-03-28 10:12:00,
2013-03-28 05:22:00,23.0,17.0,30.30,SE,139,1.0,3.0,77,0.00,,,0.00,,2013-03-28 10:22:00,
2013-03-28 05:32:00,23.0,17.0,30.30,SE,139,0.0,2.0,76,0.00,,,0.00,,2013-03-28 10:32:00,
2013-03-28 05:42:00,23.0,17.0,30.30,SE,139,0.0,2.0,76,0.00,,,0.00,,2013-03-28 10:42:00,
2013-03-28 05:52:00,22.0,16.0,30.30,SE,139,0.0,2.0,76,0.00,,,0.00,,2013-03-28 10:52:00,
2013-03-28 06:02:00,23.0,17.0,30.30,SE,139,0.0,3.0,77,0.00,,,0.00,,2013-03-28 11:02:00,
2013-03-28 06:12:00,23.0,17.0,30.30,SE,139,0.0,3.0,77,0.00,,,0.00,,2013-03-28 11:12:00,
2013-03-28 06:22:00,23.0,17.0,30.29,SE,146,0.0,2.0,77,0.00,,,0.00,,2013-03-28 11:22:00,
2013-03-28 06:32:00,22.0,16.0,30.30,SE,146,1.0,3.0,77,0.00,,,0.00,,2013-03-28 11:32:00,
2013-03-28 06:42:00,22.0,16.0,30.30,SE,146,1.0,3.0,77,0.00,,,0.00,,2013-03-28 11:42:00,
2013-03-28 06:52:00,21.0,15.0,30.29,South,189,2.0,4.0,77,0.00,,,0.00,,2013-03-28 11:52:00,
2013-03-28 07:02:00,22.0,16.0,30.29,SSW,212,2.0,4.0,78,0.00,,,0.00,,2013-03-28 12:02:00,
2013-03-28 07:12:00,22.0,16.0,30.29,SSW,212,2.0,4.0,78,0.00,,,0.00,,2013-03-28 12:12:00,
2013-03-28 07:22:00,22.0,16.0,30.29,SW,215,1.0,4.0,78,0.00,,,0.00,,2013-03-28 12:22:00,
2013-03-28 07:32:00,22.0,16.0,30.29,SW,215,1.0,4.0,78,0.00,,,0.00,,2013-03-28 12:32:00,
2013-03-28 07:42:00,22.0,16.0,30.29,SW,215,1.0,4.0,78,0.00,,,0.00,,2013-03-28 12:42:00,
2013-03-28 07:52:00,22.0,16.0,30.29,SSW,212,1.0,4.0,78,0.00,,,0.00,,2013-03-28 12:52:00,
2013-03-28 08:02:00,20.0,14.0,30.29,SW,216,2.0,4.0,77,0.00,,,0.00,,2013-03-28 13:02:00,
2013-03-28 08:12:00,20.0,14.0,30.29,SW,216,2.0,4.0,77,0.00,,,0.00,,2013-03-28 13:12:00,
2013-03-28 08:22:00,20.0,14.0,30.29,SSW,200,1.0,4.0,78,0.00,,,0.00,,2013-03-28 13:22:00,
2013-03-28 08:32:00,20.0,14.0,30.29,SSW,210,1.0,4.0,77,0.00,,,0.00,,2013-03-28 13:32:00,
2013-03-28 08:42:00,20.0,14.0,30.29,SSW,210,1.0,4.0,77,0.00,,,0.00,,2013-03-28 13:42:00,
2013-03-28 08:52:00,21.0,15.0,30.29,SSW,210,0.0,3.0,78,0.00,,,0.00,,2013-03-28 13:52:00,
2013-03-28 09:02:00,21.0,15.0,30.30,SSW,210,0.0,4.0,78,0.00,,,0.00,,2013-03-28 14:02:00,
2013-03-28 09:12:00,21.0,15.0,30.30,SSW,210,0.0,4.0,78,0.00,,,0.00,,2013-03-28 14:12:00,
2013-03-28 09:22:00,23.0,17.0,30.30,SW,214,0.0,4.0,78,0.00,,,0.00,,2013-03-28 14:22:00,
2013-03-28 09:32:00,24.0,18.0,30.29,South,184,2.0,6.0,78,0.00,,,0.00,,2013-03-28 14:32:00,
2013-03-28 09:42:00,24.0,18.0,30.29,South,184,2.0,6.0,78,0.00,,,0.00,,2013-03-28 14:42:00,
2013-03-28 09:52:00,25.0,19.0,30.30,SSE,167,2.0,5.0,78,0.00,,,0.00,,2013-03-28 14:52:00,
2013-03-28 10:02:00,25.0,19.0,30.30,SSE,159,1.0,4.0,78,0.00,,,0.00,,2013-03-28 15:02:00,
2013-03-28 10:12:00,25.0,19.0,30.30,SSE,159,1.0,4.0,78,0.00,,,0.00,,2013-03-28 15:12:00,
2013-03-28 10:22:00,25.0,19.0,30.30,SSE,159,1.0,3.0,78,0.00,,,0.00,,2013-03-28 15:22:00,
2013-03-28 10:33:00,26.0,20.0,30.30,South,177,2.0,5.0,77,0.00,,,0.00,,2013-03-28 15:33:00,
2013-03-28 10:43:00,26.0,20.0,30.30,South,177,2.0,5.0,77,0.00,,,0.00,,2013-03-28 15:43:00,
2013-03-28 10:52:00,28.0,21.0,30.30,SSE,163,0.0,3.0,76,0.00,,,0.00,,2013-03-28 15:52:00,
2013-03-28 11:02:00,28.0,21.0,30.30,SSE,163,0.0,2.0,76,0.00,,,0.00,,2013-03-28 16:02:00,
2013-03-28 11:12:00,28.0,21.0,30.30,SSE,163,0.0,2.0,76,0.00,,,0.00,,2013-03-28 16:12:00,
2013-03-28 11:23:00,31.0,23.0,30.30,SSE,163,1.0,3.0,72,0.00,,,0.00,,2013-03-28 16:23:00,
2013-03-28 11:32:00,30.0,21.0,30.29,SE,128,0.0,3.0,69,0.00,,,0.00,,2013-03-28 16:32:00,
2013-03-28 11:42:00,30.0,21.0,30.29,SE,128,0.0,3.0,69,0.00,,,0.00,,2013-03-28 16:42:00,
2013-03-28 11:52:00,31.0,21.0,30.30,SE,130,0.0,4.0,67,0.00,,,0.00,,2013-03-28 16:52:00,
2013-03-28 12:02:00,33.0,23.0,30.29,SE,132,2.0,5.0,65,0.00,,,0.00,,2013-03-28 17:02:00,
2013-03-28 12:12:00,33.0,23.0,30.29,SE,132,2.0,5.0,65,0.00,,,0.00,,2013-03-28 17:12:00,
2013-03-28 12:22:00,33.0,22.0,30.29,SE,145,2.0,5.0,64,0.00,,,0.00,,2013-03-28 17:22:00,
2013-03-28 12:32:00,33.0,23.0,30.29,SE,130,4.0,6.0,65,0.00,,,0.00,,2013-03-28 17:32:00,
2013-03-28 12:42:00,33.0,23.0,30.29,SE,130,4.0,6.0,65,0.00,,,0.00,,2013-03-28 17:42:00,
2013-03-28 12:52:00,33.0,23.0,30.29,SE,145,3.0,6.0,66,0.00,,,0.00,,2013-03-28 17:52:00,
2013-03-28 13:02:00,34.0,24.0,30.29,SE,129,3.0,8.0,67,0.00,,,0.00,,2013-03-28 18:02:00,
2013-03-28 13:12:00,34.0,24.0,30.29,SE,129,3.0,8.0,67,0.00,,,0.00,,2013-03-28 18:12:00,
2013-03-28 13:22:00,35.0,24.0,30.29,ESE,115,6.0,11.0,65,0.00,,,0.00,,2013-03-28 18:22:00,
2013-03-28 13:32:00,35.0,25.0,30.29,ESE,117,6.0,10.0,66,0.00,,,0.00,,2013-03-28 18:32:00,
2013-03-28 13:42:00,35.0,25.0,30.29,ESE,117,6.0,10.0,66,0.00,,,0.00,,2013-03-28 18:42:00,
2013-03-28 13:52:00,35.0,24.0,30.29,SE,130,5.0,10.0,65,0.00,,,0.00,,2013-03-28 18:52:00,
2013-03-28 14:02:00,35.0,25.0,30.29,SE,146,5.0,10.0,66,0.00,,,0.00,,2013-03-28 19:02:00,
2013-03-28 14:12:00,35.0,25.0,30.29,SE,146,5.0,10.0,66,0.00,,,0.00,,2013-03-28 19:12:00,
2013-03-28 14:22:00,36.0,26.0,30.29,SE,129,5.0,9.0,66,0.00,,,0.00,,2013-03-28 19:22:00,
2013-03-28 14:33:00,36.0,26.0,30.29,SE,129,5.0,9.0,66,0.00,,,0.00,,2013-03-28 19:33:00,
2013-03-28 14:42:00,36.0,26.0,30.29,SE,129,5.0,9.0,66,0.00,,,0.00,,2013-03-28 19:42:00,
2013-03-28 14:52:00,36.0,25.0,30.28,ESE,119,4.0,10.0,65,0.00,,,0.00,,2013-03-28 19:52:00,
2013-03-28 15:03:00,36.0,25.0,30.27,ESE,123,5.0,9.0,65,0.00,,,0.00,,2013-03-28 20:03:00,
2013-03-28 15:12:00,36.0,25.0,30.27,ESE,123,5.0,9.0,65,0.00,,,0.00,,2013-03-28 20:12:00,
2013-03-28 15:22:00,36.0,26.0,30.27,SE,138,4.0,9.0,66,0.00,,,0.00,,2013-03-28 20:22:00,
2013-03-28 15:32:00,36.0,26.0,30.27,SSE,150,3.0,8.0,66,0.00,,,0.00,,2013-03-28 20:32:00,
2013-03-28 15:42:00,36.0,26.0,30.27,SSE,150,3.0,8.0,66,0.00,,,0.00,,2013-03-28 20:42:00,
2013-03-28 15:52:00,37.0,26.0,30.27,SE,129,3.0,7.0,65,0.00,,,0.00,,2013-03-28 20:52:00,
2013-03-28 16:02:00,37.0,26.0,30.27,SE,128,4.0,7.0,64,0.00,,,0.00,,2013-03-28 21:02:00,
2013-03-28 16:12:00,37.0,26.0,30.27,SE,128,4.0,7.0,64,0.00,,,0.00,,2013-03-28 21:12:00,
2013-03-28 16:22:00,37.0,26.0,30.26,SE,142,4.0,8.0,65,0.00,,,0.00,,2013-03-28 21:22:00,
2013-03-28 16:32:00,37.0,26.0,30.26,SE,136,3.0,8.0,65,0.00,,,0.00,,2013-03-28 21:32:00,
2013-03-28 16:43:00,37.0,26.0,30.26,SE,136,3.0,8.0,65,0.00,,,0.00,,2013-03-28 21:43:00,
2013-03-28 16:53:00,37.0,27.0,30.26,SE,125,4.0,6.0,66,0.00,,,0.00,,2013-03-28 21:53:00,
2013-03-28 17:02:00,36.0,26.0,30.26,SE,126,4.0,7.0,66,0.00,,,0.00,,2013-03-28 22:02:00,
2013-03-28 17:12:00,36.0,26.0,30.26,SE,126,4.0,7.0,66,0.00,,,0.00,,2013-03-28 22:12:00,
2013-03-28 17:22:00,36.0,26.0,30.25,SE,129,4.0,8.0,66,0.00,,,0.00,,2013-03-28 22:22:00,
2013-03-28 17:32:00,36.0,26.0,30.25,SE,142,4.0,6.0,66,0.00,,,0.00,,2013-03-28 22:32:00,
2013-03-28 17:42:00,36.0,26.0,30.25,SE,142,4.0,6.0,66,0.00,,,0.00,,2013-03-28 22:42:00,
2013-03-28 17:52:00,36.0,26.0,30.25,South,173,3.0,6.0,66,0.00,,,0.00,,2013-03-28 22:52:00,
2013-03-28 18:03:00,36.0,26.0,30.25,SSE,153,2.0,6.0,67,0.00,,,0.00,,2013-03-28 23:03:00,
2013-03-28 18:12:00,36.0,26.0,30.25,SSE,153,2.0,6.0,67,0.00,,,0.00,,2013-03-28 23:12:00,
2013-03-28 18:22:00,36.0,26.0,30.25,SSE,165,2.0,5.0,67,0.00,,,0.00,,2013-03-28 23:22:00,
2013-03-28 18:32:00,36.0,26.0,30.25,SSE,150,1.0,5.0,68,0.00,,,0.00,,2013-03-28 23:32:00,
2013-03-28 18:42:00,36.0,26.0,30.25,SSE,150,1.0,5.0,68,0.00,,,0.00,,2013-03-28 23:42:00,
2013-03-28 18:52:00,35.0,26.0,30.25,SE,146,0.0,5.0,68,0.00,,,0.00,,2013-03-28 23:52:00,
2013-03-28 19:02:00,36.0,26.0,30.25,SE,134,2.0,4.0,68,0.00,,,0.00,,2013-03-29 00:02:00,
2013-03-28 19:12:00,36.0,26.0,30.25,SE,134,2.0,4.0,68,0.00,,,0.00,,2013-03-29 00:12:00,
2013-03-28 19:22:00,35.0,26.0,30.25,SE,133,0.0,2.0,69,0.00,,,0.00,,2013-03-29 00:22:00,
2013-03-28 19:32:00,34.0,25.0,30.25,SE,133,2.0,4.0,70,0.00,,,0.00,,2013-03-29 00:32:00,
2013-03-28 19:42:00,34.0,25.0,30.25,SE,133,2.0,4.0,70,0.00,,,0.00,,2013-03-29 00:42:00,
2013-03-28 19:52:00,33.0,25.0,30.25,SE,131,1.0,3.0,72,0.00,,,0.00,,2013-03-29 00:52:00,
2013-03-28 20:02:00,32.0,24.0,30.25,ESE,111,1.0,2.0,72,0.00,,,0.00,,2013-03-29 01:02:00,
2013-03-28 20:12:00,32.0,24.0,30.25,ESE,111,1.0,2.0,72,0.00,,,0.00,,2013-03-29 01:12:00,
2013-03-28 20:22:00,32.0,24.0,30.26,ESE,111,0.0,3.0,73,0.00,,,0.00,,2013-03-29 01:22:00,
2013-03-28 20:32:00,32.0,24.0,30.26,ESE,111,0.0,2.0,73,0.00,,,0.00,,2013-03-29 01:32:00,
2013-03-28 20:42:00,32.0,24.0,30.26,ESE,111,0.0,2.0,73,0.00,,,0.00,,2013-03-29 01:42:00,
2013-03-28 20:52:00,32.0,25.0,30.26,ESE,111,0.0,1.0,74,0.00,,,0.00,,2013-03-29 01:52:00,
2013-03-28 21:02:00,32.0,25.0,30.26,ESE,111,0.0,1.0,74,0.00,,,0.00,,2013-03-29 02:02:00,
2013-03-28 21:12:00,32.0,25.0,30.26,ESE,111,0.0,1.0,74,0.00,,,0.00,,2013-03-29 02:12:00,
2013-03-28 21:22:00,32.0,25.0,30.26,ESE,111,0.0,0.0,74,0.00,,,0.00,,2013-03-29 02:22:00,
2013-03-28 21:32:00,31.0,24.0,30.26,ESE,111,0.0,0.0,75,0.00,,,0.00,,2013-03-29 02:32:00,
2013-03-28 21:42:00,31.0,24.0,30.26,ESE,111,0.0,0.0,75,0.00,,,0.00,,2013-03-29 02:42:00,
2013-03-28 21:52:00,31.0,24.0,30.27,ESE,111,0.0,2.0,75,0.00,,,0.00,,2013-03-29 02:52:00,
2013-03-28 22:02:00,31.0,24.0,30.27,ESE,111,0.0,0.0,75,0.00,,,0.00,,2013-03-29 03:02:00,
2013-03-28 22:12:00,31.0,24.0,30.27,ESE,111,0.0,0.0,75,0.00,,,0.00,,2013-03-29 03:12:00,
2013-03-28 22:22:00,31.0,24.0,30.27,ESE,111,0.0,0.0,75,0.00,,,0.00,,2013-03-29 03:22:00,
2013-03-28 22:32:00,30.0,23.0,30.27,ESE,111,0.0,0.0,75,0.00,,,0.00,,2013-03-29 03:32:00,
2013-03-28 22:42:00,30.0,23.0,30.27,ESE,111,0.0,0.0,75,0.00,,,0.00,,2013-03-29 03:42:00,
2013-03-28 22:53:00,29.0,23.0,30.27,ESE,111,0.0,0.0,77,0.00,,,0.00,,2013-03-29 03:53:00,
2013-03-28 23:03:00,29.0,23.0,30.27,ESE,111,0.0,0.0,77,0.00,,,0.00,,2013-03-29 04:03:00,
2013-03-28 23:12:00,29.0,23.0,30.27,ESE,111,0.0,0.0,77,0.00,,,0.00,,2013-03-29 04:12:00,
2013-03-28 23:22:00,28.0,22.0,30.26,ESE,111,0.0,0.0,77,0.00,,,0.00,,2013-03-29 04:22:00,
2013-03-28 23:33:00,28.0,22.0,30.26,ESE,111,0.0,0.0,78,0.00,,,0.00,,2013-03-29 04:33:00,
2013-03-28 23:43:00,28.0,22.0,30.26,ESE,111,0.0,0.0,78,0.00,,,0.00,,2013-03-29 04:43:00,
2013-03-28 23:52:00,28.0,22.0,30.26,ESE,111,0.0,1.0,78,0.00,,,0.00,,2013-03-29 04:52:00,